Location: Kerberlivit
(48.2787°N, 4.5413°W)
Time: 17:05:48
(UTC+00:00)

CZ-4B R/B - Pass Details

Date: 18 February 2020
Orbit: 487 x 652 km, 97.9° (Epoch: 07 April)

Event Time Altitude Azimuth Distance (km) Brightness Sun altitude
Rises 05:14:39 0° 13° (NNE) 2,654 6.6 -21.7°
Reaches altitude 10° 05:16:47 10° 14° (NNE) 1,741 5.6 -21.3°
Maximum altitude 05:20:31 90° 86° (E) 505 2.5 -20.7°
Enters shadow 05:21:34 45° 194° (SSW) 686 3.1 -20.5°
